ANIK G1

Last updated on Wed Sep 17 2025 00:02:48 GMT+0000 (Coordinated Universal Time)

1 39127U 13014A 25259.56241192 -.00000093 00000+0 00000+0 0 9995 2 39127 0.0195 198.6967 0002896 5.6703 246.5562 1.00271678 45507
UTC large
Height (km)
Speed (km/s)
/
Latitude / Longitude
Inclination (degrees)
Orbital Period (minutes)
Azimuth
Elevation
Range (km)
Doppler Factor

Next 0 passes for location: London (51.5072 / 0.1276)

Sorry there are no passes over London.